Location: Newark
(43.6583°N, 1.6617°E)
Time: 08:29:36
(UTC+00:00)

Tiros 1 - Pass Details

Date: 26 August 2019
Orbit: 630 x 664 km, 48.4° (Epoch: 16 October)

Event Time Altitude Azimuth Distance (km) Brightness Sun altitude
Rises 23:42:36 0° 261° (W) 2,911 - -36.0°
Reaches altitude 10° 23:44:57 10° 265° (W) 2,005 - -36.1°
Maximum altitude 23:49:30 58° 345° (NNW) 736 - -36.1°
Drops below altitude 10° 23:54:05 10° 65° (ENE) 2,020 - -36.1°
Sets 23:56:28 0° 70° (ENE) 2,934 - -36.1°
